Regional Weather Roundup
Issued by NWS

Home | Current Version | Previous Version | Graphics & Text | Print | Product List | Glossary On
Versions: 1 2 3 4 5 6 7 8 9 10 11 12 13 14 15 16 17 18 19 20 21 22 23 24 25 26 27 28 29 30 31 32 33 34 35 36 37 38 39 40 41 42 43 44 45 46 47 48 49 50
000
ASUS43 KMPX 241101
RWRMN
WEATHER ROUNDUP FOR MINNESOTA
NATIONAL WEATHER SERVICE TWIN CITIES/CHANHASSEN MN
600 AM CDT SUN SEP 24 2017


NOTE: "FAIR" INDICATES FEW OR NO CLOUDS BELOW 12,000 FEET WITH NO
SIGNIFICANT WEATHER AND/OR OBSTRUCTIONS TO VISIBILITY. N/A MEANS
CURRENT SKY AND/OR WEATHER CONDITIONS ARE NOT AVAILABLE.

MNZ060>063-068>070-241200-
   Twin Cities Metro

CITY           SKY/WX    TMP DP  RH WIND       PRES   REMARKS
TWIN CITIES    CLEAR     73  64  73 S3        29.94S
ST PAUL        CLEAR     67  65  93 VRB6      29.95R
CRYSTAL        CLEAR     69  61  75 S6        29.92S
BLAINE         CLEAR     72  66  83 S6        29.94R
LAKEVILLE      CLEAR     64  63  94 CALM      29.95R
EDEN PRAIRIE   CLEAR     70  63  78 S6        29.93S
SOUTH ST PAUL  CLEAR     69  63  81 CALM      29.95R
LAKE ELMO      FAIR      64  63  94 CALM      29.97R
$$
MNZ001>005-007-008-013>017-022>024-027-028-241200-
   Northwest Minnesota

CITY           SKY/WX    TMP DP  RH WIND       PRES   REMARKS
BEMIDJI        LGT RAIN  58  58 100 E3        29.89F
HALLOCK        LGT RAIN  52  52 100 N13       29.95F
ROSEAU         LGT RAIN  55  50  82 N5        29.93F
WARROAD        RAIN      55  52  88 E8        29.94F
THIEF RVR FALL LGT RAIN  54  54 100 NE8       29.91F
CROOKSTON      RAIN      55  54  94 N10       29.88F
FOSSTON        CLOUDY    55  54  94 NE3       29.88F
DETROIT LAKES  RAIN      61  61 100 S5        29.87R
MOORHEAD       RAIN      55  55 100 NW3       29.87F
PARK RAPIDS    CLOUDY    61  60  97 SE3       29.88F
MAHNOMEN       LGT RAIN  57  57  99 N3        29.87S
$$
MNZ006-009>011-018-025>026-241200-
   North Central Minnesota

CITY           SKY/WX    TMP DP  RH WIND       PRES   REMARKS
BAUDETTE       LGT RAIN  56  56 100 E7        29.92F
INTL FALLS     CLOUDY    58  57  97 E6        29.94F
WASKISH        DRIZZLE   55  55 100 NE3       29.92F
BIG FORK       CLOUDY    57  57 100 CALM      29.92S
LONGVILLE      LGT RAIN  61  59  94 CALM      29.91S
GRAND RAPIDS   CLOUDY    60  59  96 CALM      29.94F
CRANE LAKE     DRIZZLE   57  57 100 CALM      29.95F
ORR            CLOUDY    59  57  94 CALM      29.91S
COOK           CLOUDY    61  59  94 E3        29.94F
WALKER         CLOUDY    59  59  99 E3        29.89F
$$
MNZ012-019>021-037-241200-
   Northeast Minnesota

CITY           SKY/WX    TMP DP  RH WIND       PRES   REMARKS
DULUTH         PTCLDY    64  64 100 SE12      29.96S
ELY            CLOUDY    57  57 100 CALM      29.95F FOG
HIBBING        FOG       57  57 100 CALM      29.94S VSB 1/2
EVELETH        MOCLDY    59  56  90 CALM      29.96S
DULUTH HARBOR  CLOUDY    64  63  94 E8        29.96S FOG
GRAND MARAIS     N/A     63  63 100 NE3       29.97S
$$
MNZ029>031-032-039>041-046>048-054>057-064-241200-
   West Central Minnesota

CITY           SKY/WX    TMP DP  RH WIND       PRES   REMARKS
FERGUS FALLS   CLOUDY    63  63 100 W9        29.87R
WHEATON        CLOUDY    59  57  94 W5        29.89S
ALEXANDRIA     FOG       61  61 100 SE12      29.89F VSB 3/4
ELBOW LAKE     MOCLDY    62  62  99 E6        29.85S
WADENA         CLOUDY    61  61 100 SE10      29.87F
GLENWOOD       FOG       61  61 100 E9        29.89F VSB 1/2
APPLETON       FOG       64  61  88 SE7       29.86S VSB 3/4
BENSON         CLOUDY    64  63  94 S7        29.88S FOG
ORTONVILLE     FOG       63  61  94 N6        29.86S VSB 1
MADISON        FOG       63  63 100 S8        29.87S VSB 3/4
WILLMAR        FAIR      64  64 100 SE7       29.90S
$$
MNZ033>034-036-042>043-049>051-058-059-241200-
   Central Minnesota

CITY           SKY/WX    TMP DP  RH WIND       PRES   REMARKS
ST CLOUD       PTCLDY    60  60 100 SE3       29.91F FOG
SAUK CENTRE    FOG       60  60 100 E7        29.90F VSB 1/4
PAYNESVILLE    FOG       63  64 100 E5        29.91F VSB 3/4
AITKIN         FOG       61  59  94 E3        29.91F VSB 1/2
PINE RIVER     CLOUDY    57  57 100 SE6       29.93F
BRAINERD       FOG       60  60 100 VRB3      29.91F VSB 1/4
STAPLES        FOG       59  59 100 SE7       29.89F VSB 1
LITTLE FALLS   FOG       61  59  94 CALM      29.91F VSB 1/4
LITCHFIELD     CLEAR     63  63 100 SE6       29.92S
BUFFALO        CLEAR     69  63  82 CALM      29.94R
MAPLE LAKE     FOG       63  63  99 CALM      29.93S VSB 1
HUTCHINSON     CLOUDY    65  64  96 SE3       29.93R
$$
MNZ037-044-045-052-053-241200-
   East Central Minnesota

CITY           SKY/WX    TMP DP  RH WIND       PRES   REMARKS
PRINCETON      CLEAR     63  63 100 CALM      29.93S FOG
MORA           FOG       59  57  94 CALM      29.95S VSB 3/4
RUSH CITY      PTCLDY    66  64  91 SE5       29.94S
MOOSE LAKE     PTCLDY    61  61 100 CALM      29.93S FOG
HINCKLEY       FAIR      61  61 100 CALM      29.94S FOG
CLOQUET        CLOUDY    64  61  88 E6        29.95S FOG
MCGREGOR       CLOUDY    61  59  94 E3        29.93F VSB 1/2
$$
MNZ071>073-080-081-089-090-097-098-241200-
   Southwest Minnesota

CITY           SKY/WX    TMP DP  RH WIND       PRES   REMARKS
MONTEVIDEO     DRIZZLE   63  63 100 S9        29.87S
GRANITE FALLS  FOG       61  61  99 SE7       29.90S VSB 3/4
CANBY          CLOUDY    60  59  98 SE6       29.88S FOG
MARSHALL       CLOUDY    57  57 100 SE9       29.88F FOG
REDWOOD FALLS  FOG       60  58  92 SE7       29.90S VSB 3/4
OLIVIA         PTCLDY    61  59  94 SE8       29.89S
PIPESTONE      CLOUDY    66  63  88 S10       29.88S
WORTHINGTON    PTCLDY    66  63  90 S8        29.92F
JACKSON        CLEAR     66  63  88 CALM      29.94S
TRACY          PTCLDY    58  58 100 S5        29.89F
SLAYTON        PTCLDY    56  50  81 SE5       29.92S HAZE
$$
MNZ065>067-074>077-082>085-091>093-241200-
   South Central Minnesota

CITY           SKY/WX    TMP DP  RH WIND       PRES   REMARKS
MANKATO        CLEAR     68  63  84 S5        29.95R
NEW ULM        CLEAR     63  63 100 SE7       29.92S
ST JAMES       CLEAR     64  63  94 SE8       29.93F
FAIRMONT       CLEAR     65  63  93 S6        29.94S
FARIBAULT      CLEAR     72  63  73 S8        29.96R
OWATONNA       CLEAR     70  63  78 SE9       29.97R
WASECA         CLEAR     68  61  77 SE6       29.97R
ALBERT LEA     CLEAR     70  64  83 S6        29.98R
$$
MNZ078>079-086>088-094>096-241200-
   Southeast Minnesota

CITY           SKY/WX    TMP DP  RH WIND       PRES   REMARKS
ROCHESTER      CLEAR     67  62  84 S8        30.00S
RED WING       CLEAR     72  61  68 E5        29.95S
STANTON        CLEAR     70  62  74 S5        29.94S
DODGE CENTER   PTCLDY    66  61  82 SE6       29.99R
WINONA         CLEAR     70  63  78 SE3       30.00R
AUSTIN         PTCLDY    68  61  77 S3        29.99R
PRESTON        CLEAR     68  60  77 S7        30.02R
$$
ABBREVIATIONS USED IN REMARKS
   TC - TEMPERATURES IN CELSIUS
  WCI - WIND CHILL INDEX
   HX - HEAT INDEX
  VSB - VISIBILITY
$$




USA.gov is the U.S. government's official web portal to all federal, state and local government web resources and services.